Regional Weather Roundup
Issued by NWS

Home | Current Version | Previous Version | Graphics & Text | Print | Product List | Glossary On
Versions: 1 2 3 4 5 6 7 8 9 10 11 12 13 14 15 16 17 18 19 20 21 22 23 24 25 26 27 28 29 30 31 32 33 34 35 36 37 38 39 40 41 42 43 44 45 46 47 48 49 50
315
ASUS43 KLOT 251009
RWRIL

ILLINOIS REGIONAL WEATHER ROUNDUP
NATIONAL WEATHER SERVICE CHICAGO/ROMEOVILLE IL
500 AM CDT THU AUG 25 2016

NOTE: "FAIR" INDICATES FEW OR NO CLOUDS BELOW 12,000 FEET WITH NO
SIGNIFICANT WEATHER AND/OR OBSTRUCTIONS TO VISIBILITY.

* THESE STATIONS ARE NOT UNDER NWS QUALITY CONTROL. THEY ALSO MAY NOT
  REPORT WEATHER SUCH AS PRECIPITATION OR FOG.

ILZ001-002-007-009-015-016-024-251100-
NORTHWEST ILLINOIS

CITY           SKY/WX    TMP DP  RH WIND       PRES   REMARKS
MOLINE         CLOUDY    71  69  93 W8        29.98F
STERLING*      CLOUDY    70  70 100 W8        29.97S
SAVANNA*       CLOUDY    71  69  93 NW6       29.98S
$$

ILZ003-004-008-010-011-017-018-251100-
NORTH CENTRAL ILLINOIS

CITY           SKY/WX    TMP DP  RH WIND       PRES   REMARKS
ROCKFORD       LGT RAIN  70  67  90 N14       29.98S
FREEPORT*      CLOUDY    67  65  93 NW5       30.01R
ROCHELLE*      CLOUDY    70  69  97 W8        29.96F
DE KALB*       CLOUDY    71  69  95 W6        29.96F
$$

ILZ005-006-012>014-019>023-251100-
NORTHEAST ILLINOIS

CITY           SKY/WX    TMP DP  RH WIND       PRES   REMARKS
CHICAGO-OHARE  CLOUDY    71  69  93 SW5       29.95F
CHICAGO-MIDWAY LGT RAIN  73  69  87 SW9       29.96F
AURORA         LGT RAIN  72  69  90 W3        29.95F
LANSING*       LGT RAIN  70  67  90 SW5       29.99F
JOLIET*        LGT RAIN  72  71  96 CALM      29.96F
WAUKEGAN       CLOUDY    70  69  97 CALM      29.95F
DUPAGE AIRPORT CLOUDY    71  68  90 S3        29.95F
KANKAKEE*      CLOUDY    71  69  96 S3        29.98F
WHEELING       CLOUDY    73  69  87 SW6       29.96F
MORRIS*        LGT RAIN  71  70  96 CALM      29.93F
ROMEOVILLE*    LGT RAIN  71  68  92 CALM      29.95F
NORTHERLY ISL    N/A     73  68  84 S10         N/A
$$

LMZ740>746-251100-
SOUTHERN LAKE MICHIGAN

STATION/POSITION SKY/WX   TEMP    WIND        PRES    VSBY  WAVE
                          AIR SEA DIR/SP/G                  HT/PER
                          (F)     (DEG/KT/KT) (MB)    (MI)  (FT/S)
SOUTHERN BUOY              72 74  320/ 10/ 12 1013.5R         1/ 3
WILMETTE HARBOR            71 69  230/  6/  8   N/A           0
HARRISON CRIB              75     220/ 12/ 13   N/A
BURNHAM HARBOR             73     180/  6/ 11   N/A
CALUMET HARBOR             72     190/  6/  8 1014.9R
BURNS HARBOR               72     190/ 13/ 18 1015.9R
MICHIGAN CITY              72     190/ 17/ 19   N/A
MICHIGAN CITY 6N           74 74  210/ 12/ 16   N/A           1/ 2
ST. JOSEPH                 74 74  220/ 12/ 17 1014.8R         2/ 3
$$

ILZ025>027-034>036-040-047-049-050-058-095>099-251100-
WEST-CENTRAL ILLINOIS

CITY           SKY/WX    TMP DP  RH WIND       PRES   REMARKS
QUINCY         LGT RAIN  70  70 100 S6        30.03S
GALESBURG*     CLOUDY    69  68  97 SW5       30.00R
MACOMB*        CLOUDY    72  72 100 W6        30.04R FOG
JACKSONVILLE*  CLOUDY    68  67  96 CALM      30.04R
PITTSFIELD*    LGT RAIN  70  69  98 SW3       30.05S
$$

ILZ028>032-037-038-041>044-048-051>054-059>061-251100-
CENTRAL ILLINOIS

CITY           SKY/WX    TMP DP  RH WIND       PRES   REMARKS
PONTIAC        CLOUDY    70  70 100 SW5       29.99R
BLOOMINGTON    CLOUDY    68  67  96 S7        30.00F
DECATUR        PTCLDY    68  66  93 SE6       30.02F
PEORIA         CLOUDY    70  70 100 SW7       29.99R
LACON*         CLOUDY    70  69  97 CALM      29.95S
LINCOLN*       CLOUDY    68  68 100 CALM      30.00S
SPRINGFIELD    PTCLDY    69  67  93 SW5       30.02S
TAYLORVILLE    CLOUDY    66  66  99 CALM      30.03S
$$

ILZ033-039-045-046-055>057-062-063-251100-
EAST-CENTRAL ILLINOIS

CITY           SKY/WX    TMP DP  RH WIND       PRES   REMARKS
CHAMPAIGN      CLOUDY    68  67  96 CALM      30.02F
RANTOUL*       CLOUDY    69  69  99 S3        30.01F
MATTOON        CLOUDY    70  67  90 CALM      30.03F
PARIS*         CLOUDY    71  69  92 CALM      30.04F
$$

ILZ079-100>102-251100-
SOUTHWEST ILLINOIS

CITY           SKY/WX    TMP DP  RH WIND       PRES   REMARKS
ALTON          CLEAR     71  69  92 CALM      30.05R
BELLEVILLE     CLEAR     73  73 100 S5        30.04S
CAHOKIA*       CLEAR     73  70  90 CALM      30.05S
SPARTA*        CLEAR     73  72  98 CALM      30.09R
$$

ILZ064>066-069>071-074>076-080>082-084>086-088>090-092>094-251100-
SOUTH-CENTRAL ILLINOIS

CITY           SKY/WX    TMP DP  RH WIND       PRES   REMARKS
CARBONDALE     CLEAR     73  71  93 S6        30.07R
CAIRO*         CLEAR     72  72 100 CALM      30.09R
EFFINGHAM*     CLEAR     75  75 100 S3        30.06S
MARION         CLEAR     73  73 100 S6        30.08S
MT. VERNON     CLEAR     73  68  83 S5        30.07S
CENTRALIA*     CLEAR     75  75  99 SW5       30.05S
SALEM*         PTCLDY    76  74  92 SW5       30.06S
$$

ILZ067-068-072-073-078-083-087-091-251100-
SOUTHEAST ILLINOIS

CITY           SKY/WX    TMP DP  RH WIND       PRES   REMARKS
LAWRENCEVILLE  PTCLDY    74  74 100 S7        30.06S
FLORA*         CLEAR     75  74  97 SW5       30.05S FOG
FAIRFIELD*     CLEAR     74  74 100 CALM      30.06R FOG
HARRISBURG*    CLEAR     74  74  99 SW3       30.08S
ROBINSON*      PTCLDY    75  74  95 SW6       30.05S
CARMI*         CLEAR     72  72 100 S3        30.07R FOG
$$

ABBREVIATIONS USED IN REMARKS
   TC - TEMPERATURE IN CELSIUS
  WCI - WIND CHILL INDEX
   HX - HEAT INDEX
  VSB - VISIBILITY
$$





USA.gov is the U.S. government's official web portal to all federal, state and local government web resources and services.